This demonstration page uses our WeatherBlox Daily Observations layout. Learn more.

39.01783, -85.05884

Hourly Observations for August 6, 2020

Temp ( °F °C ) Dew Point ( °F °C ) Humidity (%) Winds ( mph kmh ) Pressure ( in mb ) Visibility ( mi km ) Precip ( " mm )
12:52 am 00:52 Mostly Clear 65 18.3 55 12.8 70 70 NE 6 9 30.08 1019 10 16.0934 0 0
1:52 am 01:52 Clear 65 18.3 54 12.2 68 68 NNE 5 7 30.07 1018 10 16.0934 0 0
2:52 am 02:52 Mostly Clear 64 17.8 55 12.8 73 73 NNE 6 9 30.06 1018 10 16.0934 0 0
3:52 am 03:52 Mostly Cloudy 62 16.7 56 13.3 80 80 NNW 6 9 30.06 1018 10 16.0934 0 0
4:52 am 04:52 Partly Cloudy 64 17.8 54 12.2 70 70 NE 6 9 30.06 1018 10 16.0934 0 0
5:52 am 05:52 Cloudy 65 18.3 53 11.7 66 66 NE 7 11 30.07 1018 10 16.0934 0 0
6:52 am 06:52 Mostly Cloudy 63 17.2 54 12.2 73 73 N 5 7 30.08 1019 10 16.0934 0 0
7:52 am 07:52 Mostly Cloudy 63 17.2 55 12.8 76 76 N 5 7 30.09 1019 10 16.0934 0 0
8:52 am 08:52 Mostly Cloudy 67 19.4 55 12.8 66 66 NNE 7 11 30.1 1019 10 16.0934 0 0
9:52 am 09:52 Mostly Cloudy 70 21.1 55 12.8 59 59 NE 7 11 30.1 1019 10 16.0934 0 0
10:52 am 10:52 Partly Cloudy 73 22.8 57 13.9 57 57 NNE 7 11 30.1 1019 10 16.0934 0 0
11:52 am 11:52 Partly Cloudy 74 23.3 56 13.3 54 54 VRB 6 9 30.1 1019 10 16.0934 0 0
12:52 pm 12:52 Partly Cloudy 76 24.4 58 14.4 54 54 N 8 13 30.09 1019 10 16.0934 0 0
1:52 pm 13:52 Mostly Cloudy 77 25 57 13.9 50 50 N 5 7 30.09 1019 10 16.0934 0 0
2:52 pm 14:52 Cloudy 77 25 57 13.9 50 50 Calm 30.07 1018 10 16.0934 0 0
3:52 pm 15:52 Mostly Cloudy 78 25.6 59 15 52 52 N 9 15 30.06 1018 10 16.0934 0 0
4:52 pm 16:52 Mostly Cloudy 78 25.6 58 14.4 50 50 NNW 8 13 30.06 1018 10 16.0934 0 0
5:52 pm 17:52 Mostly Cloudy 78 25.6 59 15 52 52 N 10 17 30.05 1018 10 16.0934 0 0
6:52 pm 18:52 Mostly Cloudy 77 25 59 15 54 54 NNW 9 15 30.04 1017 10 16.0934 0 0
7:52 pm 19:52 Mostly Cloudy 76 24.4 58 14.4 54 54 N 9 15 30.05 1018 10 16.0934 0 0
8:52 pm 20:52 Mostly Cloudy 73 22.8 59 15 62 62 NNW 7 11 30.05 1018 10 16.0934 0 0
9:52 pm 21:52 Partly Cloudy 71 21.7 58 14.4 63 63 N 7 11 30.06 1018 10 16.0934 0 0
10:52 pm 22:52 Mostly Clear 71 21.7 57 13.9 61 61 N 7 11 30.06 1018 10 16.0934 0 0
11:52 pm 23:52 Mostly Cloudy 70 21.1 57 13.9 64 64 NNE 7 11 30.07 1018 10 16.0934 0 0

Powered by AerisWeather